Weather Roundup
Issued by NWS Chicago, IL

Home | Current Version | Previous Version | Graphics & Text | Print | Product List | Glossary On
Versions: 1 2 3 4 5 6 7 8 9 10 11 12 13 14 15 16 17 18 19 20 21 22 23 24 25 26 27 28 29 30 31 32 33 34 35 36 37 38 39 40 41 42 43 44 45 46 47 48 49 50
000
NZUS59 KLOT 231606
HRRLOT

CHICAGO AREA WEATHER ROUNDUP
NATIONAL WEATHER SERVICE CHICAGO/ROMEOVILLE IL
1100 AM CDT WED JUL 23 2014

NOTE: "FAIR" INDICATES FEW OR NO CLOUDS BELOW 12,000 FEET WITH NO
SIGNIFICANT WEATHER AND/OR OBSTRUCTIONS TO VISIBILITY.

* THESE STATIONS ARE NOT UNDER NWS QUALITY CONTROL. THEY ALSO MAY NOT
  REPORT WEATHER SUCH AS PRECIPITATION OR FOG.

ILZ005-006-012>014-019>023-231700-
NORTHEAST ILLINOIS

CITY           SKY/WX    TMP DP  RH WIND       PRES   REMARKS
OHARE          MOSUNNY   70  53  54 NE17G25   30.15F
MIDWAY         MOSUNNY   70  57  63 N21G28    30.15R
AURORA         SUNNY     73  54  51 N16       30.16R
LANSING*       MOSUNNY   67  57  70 NE18G25   30.14R
JOLIET*        SUNNY     72  54  53 NE12G23   30.15R
WAUKEGAN       SUNNY     68  55  63 N12G20    30.16S
DUPAGE AIRPORT SUNNY     74  55  51 NE14      30.15S
WHEELING       SUNNY     69  55  60 N15G25    30.18S
KANKAKEE*      SUNNY     71  58  64 N16G25    30.14R
MORRIS*        SUNNY     74  58  56 CALM      30.14R
LEWIS AIRPORT* SUNNY     71  54  55 NE16G28   30.14S
NORTHERLY IS     N/A     65  56  72 N20         N/A
$$

WIZ051-052-058>065-066-070>072-231700-
SOUTHEAST WISCONSIN

CITY           SKY/WX    TMP DP  RH WIND       PRES   REMARKS
MILWAUKEE      MOSUNNY   66  55  67 N16G23    30.18S
KENOSHA*       SUNNY     69  54  58 N16G25    30.18S
RACINE*        SUNNY     66  57  72 N18       30.19S
BURLINGTON     MOSUNNY   69  55  60 N9G16     30.18S
WAUKESHA       MOSUNNY   70  52  52 NE12      30.20R
WEST BEND      SUNNY     70  50  49 NE14G20   30.19R
$$

INZ001>003-010>013-019-020-231700-
NORTHWEST INDIANA

CITY           SKY/WX    TMP DP  RH WIND       PRES   REMARKS
GARY*          MOSUNNY   68  59  73 N16G32    30.15R
MICHIGAN CITY* NOT AVBL
RENSSELAER*    NOT AVBL
VALPARAISO     CLOUDY    68  60  75 N9G20     30.12R
$$

LMZ740>746-231700-
SOUTHERN LAKE MICHIGAN

STATION/POSITION TIME  SKY/WX   TEMP WIND        PRES    VSBY
                                AIR  DIR/SP/G
                 (UTC)          (F)  (DEG/KT/KT) (MB)    (MI)
HARRISON CRIB    1600            62  360/ 24/ 27   N/A
BURNHAM HARBOR   1600            65   20/ 11/ 18   N/A
CALUMET HARBOR   1600            65  350/ 15/ 22 1019.8R
BURNS HARBOR     NOT AVBL
MICHIGAN CITY    1600            64  340/ 23/ 26   N/A
$$

ABBREVIATIONS USED IN REMARKS
   TC - TEMPERATURE IN CELSIUS
  WCI - WIND CHILL INDEX
   HX - HEAT INDEX
  VSB - VISIBILITY
$$



USA.gov is the U.S. government's official web portal to all federal, state and local government web resources and services.